sat.trackr.live / text

‹ back to catalog

STARLINK-32720

NORAD 62451 · 2024-251V

PAYLOAD ACTIVE UNKNOWN

§ Identity

Operator
Country
US
Launch date
2024-12-29
Launch site
AFWTR
Launch vehicle
Mass (kg)
RCS (m²)

Purposes: comms

External: N2YO · Heavens-Above · Gunter

§ Orbital elements

Epoch: 2026-05-24T23:06:33.532704Z

Period
94.11 min
Inclination
53.1593°
Eccentricity
0.0001001
Mean motion
15.30195241 rev/d
Perigee alt
474.5 km
Apogee alt
475.9 km
Semi-major
6,853.4 km
B*
1.2857e-4
RAAN
341.2044°
Arg perigee
84.9586°
Mean anomaly
275.1529°
Rev number
7,925

§ Raw data

STARLINK-327201 62451U 24251V   26144.96288811  .00003450  00000+0  12857-3 0  99992 62451  53.1593 341.2044 0001001  84.9586 275.1529 15.30195241 79251

JSON: /api/v1/satellites/62451 · /tle

For live sub-satellite position, see the globe view (requires WebGL).

§ Visibility from observer

Set your observer location to see the next 7 days of passes ≥ 10°. The values pass through the URL so the page stays shareable.

No JS? Fill the form by hand. The geolocation button needs JavaScript.